Ladysmith, WI

11:33 AM CDT on April 28, 2017 (GMT -0500)
Rusk County

Weather History for KRCX - May, 2013

Change the Weather History Date:

Monday, May 27, 2013

  Actual Average (KPBH) Record (KPBH)
Temperature  
Mean Temperature 58 °F -  
Max Temperature 66 °F 64 °F 86 °F (2012)
Min Temperature 50 °F 42 °F 30 °F (2008)
Degree Days  
Heating Degree Days 7    
Growing Degree Days 8 (Base 50)    
Moisture  
Dew Point 44 °F    
Average Humidity 63    
Maximum Humidity 86    
Minimum Humidity 49    
Precipitation  
Precipitation 0.00 in - - ()
Sea Level Pressure  
Sea Level Pressure 30.03 in    
Wind  
Wind Speed 9 mph (ESE)    
Max Wind Speed 22 mph    
Max Gust Speed 26 mph    
Visibility 10 miles    
Events Rain    
Averages and records for this station are not official NWS values.
T = Trace of Precipitation, MM = Missing Value Source: NWS Daily Summary

Daily Weather History Graph

Daily Weather History Graph

Search for Another Location

Airport or City:

Trip Planner

Search our weather history database for the weather conditions in past years. The results will help you decide how hot, cold, wet, or windy it might be!

Date:

Astronomy

May. 27, 2013 Rise Set
Actual Time 5:21 AM CDT 8:41 PM CDT
Civil Twilight 4:45 AM CDT 9:17 PM CDT
Nautical Twilight 3:58 AM CDT 10:05 PM CDT
Astronomical Twilight 2:58 AM CDT 11:05 PM CDT
Moon 11:16 PM CDT (5/27) 8:01 AM CDT (5/27)
Length of Visible Light 16h 32m
Length of Day
15h 19m
Waning Gibbous, 91% of the Moon is Illuminated
May 27
Waning Gibbous
May 31
Last Quarter
Jun 8
New
Jun 16
First Quarter
Jun 23
Full

Hourly Weather History & Observations

Time (CDT) Temp. Dew Point Humidity Pressure Visibility Wind Dir Wind Speed Gust Speed Precip Events Conditions
12:15 AM 51.6 °F 41.9 °F 69% 30.17 in 10.0 mi East 8.1 mph - N/A   Clear
12:35 AM 51.1 °F 42.1 °F 71% 30.14 in 10.0 mi East 8.1 mph - N/A   Clear
12:55 AM 51.4 °F 42.3 °F 71% 30.14 in 10.0 mi ESE 6.9 mph - N/A   Clear
1:15 AM 50.9 °F 42.1 °F 72% 30.14 in 10.0 mi East 6.9 mph - N/A   Clear
1:35 AM 50.5 °F 41.9 °F 72% 30.14 in 10.0 mi East 8.1 mph - N/A   Clear
1:55 AM 50.0 °F 41.9 °F 74% 30.15 in 10.0 mi East 6.9 mph - N/A   Clear
2:15 AM 50.4 °F 41.9 °F 73% 30.13 in 10.0 mi East 8.1 mph - N/A   Mostly Cloudy
2:35 AM 50.9 °F 41.9 °F 71% 30.13 in 10.0 mi East 8.1 mph - N/A   Overcast
2:55 AM 51.8 °F 41.5 °F 68% 30.13 in 10.0 mi ESE 9.2 mph - N/A   Overcast
3:15 AM 51.6 °F 41.5 °F 68% 30.12 in 10.0 mi East 9.2 mph - N/A   Overcast
3:35 AM 51.4 °F 41.7 °F 69% 30.12 in 10.0 mi East 5.8 mph - N/A   Overcast
3:55 AM 51.4 °F 41.9 °F 70% 30.11 in 10.0 mi East 8.1 mph - N/A   Overcast
4:15 AM 51.8 °F 41.5 °F 68% 30.11 in 10.0 mi East 6.9 mph - N/A   Overcast
4:35 AM 51.8 °F 41.2 °F 67% 30.09 in 10.0 mi East 8.1 mph - N/A   Overcast
4:55 AM 52.2 °F 40.6 °F 65% 30.10 in 10.0 mi East 9.2 mph - N/A   Overcast
5:15 AM 52.7 °F 40.1 °F 62% 30.08 in 10.0 mi East 9.2 mph - N/A   Overcast
5:35 AM 52.9 °F 39.2 °F 60% 30.10 in 10.0 mi East 8.1 mph - N/A   Overcast
5:55 AM 52.9 °F 39.2 °F 60% 30.09 in 10.0 mi East 8.1 mph - N/A   Overcast
6:15 AM 53.1 °F 39.4 °F 60% 30.10 in 10.0 mi East 5.8 mph - N/A   Overcast
6:35 AM 53.1 °F 39.2 °F 59% 30.10 in 10.0 mi East 6.9 mph - N/A   Overcast
6:55 AM 53.6 °F 39.4 °F 59% 30.11 in 10.0 mi East 5.8 mph - N/A   Overcast
7:15 AM 54.0 °F 39.2 °F 57% 30.10 in 10.0 mi East 8.1 mph - N/A   Overcast
7:35 AM 55.0 °F 39.0 °F 55% 30.09 in 10.0 mi East 9.2 mph - N/A   Overcast
7:55 AM 55.6 °F 38.5 °F 53% 30.08 in 10.0 mi East 10.4 mph - N/A   Overcast
8:15 AM 56.3 °F 38.1 °F 51% 30.08 in 10.0 mi East 10.4 mph - N/A   Overcast
8:35 AM 56.5 °F 39.2 °F 52% 30.07 in 10.0 mi East 8.1 mph - N/A   Overcast
8:55 AM 57.0 °F 39.6 °F 52% 30.06 in 10.0 mi East 6.9 mph - N/A   Overcast
9:15 AM 58.5 °F 39.6 °F 49% 30.05 in 10.0 mi East 11.5 mph - N/A   Overcast
9:35 AM 59.0 °F 39.7 °F 49% 30.05 in 10.0 mi East 10.4 mph - N/A   Overcast
9:55 AM 59.9 °F 40.6 °F 49% 30.04 in 10.0 mi ESE 10.4 mph - N/A   Overcast
10:15 AM 60.3 °F 41.7 °F 50% 30.05 in 10.0 mi ESE 8.1 mph - N/A   Overcast
10:35 AM 61.0 °F 42.6 °F 51% 30.05 in 10.0 mi ESE 9.2 mph - N/A   Overcast
10:55 AM 61.7 °F 44.1 °F 52% 30.06 in 10.0 mi SSE 6.9 mph - N/A   Overcast
11:15 AM 61.2 °F 46.2 °F 58% 30.06 in 10.0 mi SE 8.1 mph 16.1 mph N/A Rain Light Rain
11:35 AM 61.5 °F 46.8 °F 58% 30.05 in 10.0 mi SE 6.9 mph - N/A   Overcast
11:55 AM 63.0 °F 46.6 °F 55% 30.04 in 10.0 mi ESE 11.5 mph - N/A   Overcast
12:15 PM 63.5 °F 46.4 °F 54% 30.03 in 10.0 mi ESE 10.4 mph - N/A   Overcast
12:35 PM 63.1 °F 45.3 °F 52% 30.02 in 10.0 mi ESE 15.0 mph 23.0 mph N/A   Overcast
12:55 PM 63.7 °F 44.8 °F 50% 30.00 in 10.0 mi SE 18.4 mph 23.0 mph N/A   Overcast
1:15 PM 63.1 °F 44.2 °F 50% 30.00 in 10.0 mi ESE 16.1 mph 24.2 mph N/A   Overcast
1:35 PM 64.6 °F 45.5 °F 50% 29.99 in 10.0 mi SE 18.4 mph 24.2 mph N/A   Overcast
1:55 PM 64.4 °F 45.9 °F 51% 29.97 in 10.0 mi ESE 21.9 mph 26.5 mph N/A   Overcast
2:15 PM 65.3 °F 45.9 °F 49% 29.98 in 10.0 mi ESE 16.1 mph 25.3 mph N/A   Overcast
2:35 PM 66.2 °F 46.6 °F 49% 29.98 in 10.0 mi SE 17.3 mph 20.7 mph N/A   Overcast
2:55 PM 64.8 °F 45.3 °F 49% 29.98 in 10.0 mi SE 12.7 mph 24.2 mph N/A   Overcast
3:15 PM 65.1 °F 45.7 °F 49% 29.99 in 10.0 mi SE 12.7 mph - N/A   Overcast
3:35 PM 64.4 °F 45.7 °F 51% 29.98 in 10.0 mi SE 11.5 mph 16.1 mph N/A   Overcast
3:55 PM 64.0 °F 46.6 °F 53% 29.98 in 10.0 mi SE 9.2 mph - N/A   Overcast
4:15 PM 63.9 °F 46.4 °F 53% 29.97 in 10.0 mi SE 10.4 mph 19.6 mph N/A   Overcast
4:35 PM 63.1 °F 47.1 °F 56% 29.97 in 10.0 mi SE 8.1 mph - N/A   Overcast
4:55 PM 62.2 °F 47.5 °F 58% 29.97 in 10.0 mi SE 6.9 mph - N/A   Overcast
5:15 PM 61.7 °F 47.3 °F 59% 29.97 in 10.0 mi SE 10.4 mph - N/A   Overcast
5:35 PM 61.2 °F 47.1 °F 60% 29.97 in 10.0 mi ESE 9.2 mph - N/A   Overcast
5:55 PM 60.8 °F 47.1 °F 61% 29.97 in 10.0 mi East 10.4 mph - N/A   Overcast
6:15 PM 59.9 °F 48.4 °F 66% 29.96 in 10.0 mi East 8.1 mph 16.1 mph N/A Rain Light Rain
6:35 PM 59.4 °F 47.8 °F 66% 29.95 in 10.0 mi East 6.9 mph - N/A   Overcast
6:55 PM 59.0 °F 48.0 °F 67% 29.95 in 10.0 mi East 8.1 mph - N/A   Overcast
7:15 PM 59.0 °F 48.2 °F 67% 29.94 in 10.0 mi East 11.5 mph - N/A   Overcast
7:35 PM 58.3 °F 49.1 °F 71% 29.94 in 10.0 mi East 10.4 mph 18.4 mph N/A   Overcast
7:55 PM 58.5 °F 49.1 °F 71% 29.94 in 10.0 mi ESE 8.1 mph 16.1 mph N/A   Overcast
8:15 PM 58.1 °F 49.1 °F 72% 29.93 in 10.0 mi East 8.1 mph - N/A   Overcast
8:35 PM 57.6 °F 48.7 °F 72% 29.93 in 10.0 mi ESE 11.5 mph 20.7 mph N/A   Overcast
8:55 PM 56.8 °F 49.1 °F 75% 29.93 in 10.0 mi SSE 4.6 mph - N/A   Overcast
9:15 PM 55.8 °F 48.2 °F 76% 29.94 in 10.0 mi SE 6.9 mph - N/A   Overcast
9:35 PM 55.6 °F 48.2 °F 76% 29.95 in 10.0 mi SE 3.5 mph - N/A   Overcast
9:55 PM 55.4 °F 47.7 °F 75% 29.96 in 10.0 mi SE 6.9 mph - N/A   Overcast
10:15 PM 55.2 °F 47.5 °F 75% 29.95 in 10.0 mi SE 6.9 mph - N/A   Light Drizzle
10:35 PM 54.1 °F 48.2 °F 80% 29.95 in 10.0 mi ESE 9.2 mph - N/A   Light Drizzle
10:55 PM 53.1 °F 48.2 °F 84% 29.94 in 10.0 mi ESE 6.9 mph - N/A Rain Light Rain
11:15 PM 52.3 °F 48.4 °F 86% 29.94 in 10.0 mi ESE 6.9 mph - N/A   Light Drizzle
11:35 PM 52.2 °F 48.2 °F 86% 29.93 in 10.0 mi East 5.8 mph - N/A   Light Drizzle
11:55 PM 52.0 °F 47.7 °F 85% 29.93 in 10.0 mi East 3.5 mph - N/A   Overcast